sat.trackr.live / text

‹ back to catalog

STARLINK-5987

NORAD 56455 · 2023-064H

PAYLOAD ACTIVE UNKNOWN

§ Identity

Operator
Country
US
Launch date
2023-05-10
Launch site
AFWTR
Launch vehicle
Mass (kg)
RCS (m²)

Purposes: comms

External: N2YO · Heavens-Above · Gunter

§ Orbital elements

Epoch: 2026-09-20T12:58:41.529216Z

Period
96.11 min
Inclination
70.0009°
Eccentricity
0.0003061
Mean motion
14.98331613 rev/d
Perigee alt
569.9 km
Apogee alt
574.2 km
Semi-major
6,950.2 km
B*
9.6241e-6
RAAN
13.1345°
Arg perigee
268.3796°
Mean anomaly
91.7012°
Rev number
18,443

§ Raw data

STARLINK-59871 56455U 23064H   26263.54075844  .00000022  00000+0  96241-5 0  99962 56455  70.0009  13.1345 0003061 268.3796  91.7012 14.98331613184430

JSON: /api/v1/satellites/56455 · /tle

For live sub-satellite position, see the globe view (requires WebGL).

§ Visibility from observer

Set your observer location to see the next 7 days of passes ≥ 10°. The values pass through the URL so the page stays shareable.

No JS? Fill the form by hand. The geolocation button needs JavaScript.